DELTA 1 DEB

Satellite information

Favourite Embed

Satellite Type and Status

DEBRISIN ORBIT

Key statistics

Satellite DELTA 1 DEB at a glance.

Uptime

17402

Days in orbit

Revolutions

≈ 14.3

Per day

Orbit

SSO

Sun Synchronous Orbit

Inclination

98.8

Latest

Satellite identification and parameters

Extended collection of information and parameters for DELTA 1 DEB.

Object identification

Identified? True

Debris? True

Object name: DELTA 1 DEB

International designator: 1978-026AV

Object number (NORAD): 12204

Object ID (CCSDS): 12204

Country: UNITED STATES OF AMERICA (US)

Current information (Y/N): Y

RCS size: SMALL

Orbital parameters

Period: 100.652 minutes

Inclination: 98.7651 deg

SMA: 7167.63 km

Apoapsis: 846.036 km

Periapsis: 732.954 km

RAAN: 316.4361 deg

Eccentricy: 0.0078884

Argument of periapsis: 184.4804 deg

Mean anomaly: 175.5681 deg

Mean motion: 14.30669757 rev/day

Mean motion (dot): 0.00000595 rev/day2

B* drag term: 0.00023689089 1/REarth

Two-line elements (TLE)

Creation date: Oct. 26, 2025, 2:54 a.m.

Reference frame: TEME

Reference center: EARTH

Epoch: Oct. 25, 2025, 10:35 p.m. UTC

TLE line 0: 0 DELTA 1 DEB

TLE line 1: 1 12204U 78026AV 25298.94136900 .00000595 00000-0 23689-3 0 9990

TLE line 2: 2 12204 98.7651 316.4361 0078884 184.4804 175.5681 14.30669757324151

Live tracking on map

Real-time ground track for satellite DELTA 1 DEB.

In-orbit conjunctions

A list of the most updated potential collisions computed for object DELTA 1 DEB.

Target Orbit TCA Probability of collision Miss distance Type
CZ-6A DEB LEO 2025-10-09 13:41:06 0.0001014609 929.0 (m) DEBRIS
DELTA 1 DEB SSO 2024-06-20 10:45:05 0.00017904 207.0 (m) DEBRIS

Associated space launch

Earth observation satellite

DELTA 1 DEB was lifted into orbit during the mission ‘Delta 2910 | Landsat 3’, on board a Delta 2910 space rocket.

The launch took place on March 5, 1978, 5:54 p.m. from Space Launch Complex 2W.

For more information about the launch, click the button.

Launch to space Delta 2910 | Landsat 3
Delta 2910 | Landsat 3

Agency: N/A

Status: Launch Successful

Launch date: March 5, 1978, 5:54 p.m. UTC

Rocket: Delta 2910

Launch pad: Space Launch Complex 2W

Location: Vandenberg SFB, CA, USA

...

Latest news about this satellite

There are no fresh news available about this satellite. Check back as we update our databases every day.


Newsletter sign-up

Weekly statistics, charts and insights to help you stay on top of the space industry.